Location: Bethlehem Center
(42.6020°N, 73.7915°W)
Time: 07:55:20
(UTC+00:00)

Daily predictions for brighter satellites

Satellite Brightness Start Highest point End
(mag) Time Altitude Azimuth Time Altitude Azimuth Time Altitude Azimuth
ATLAS 3B R/B 2.8 22:08:06 10° NNW 22:15:05 71° NE 22:22:20 10° SE
COSMO-SKYMED 1 3.7 22:15:20 10° NE 22:18:57 25° E 22:22:33 10° SSE
FengYun 1-2 T 4.3 22:17:43 10° SSE 22:23:12 65° ENE 22:28:45 10° N
Cosmos 2297 Rocket 4.5 22:19:47 10° W 22:23:34 18° NW 22:27:23 10° N
AQUARIUS 4.1 22:19:43 10° SSE 22:24:11 79° ENE 22:28:42 10° N
Okean O Rocket 1.6 22:20:17 10° SSE 22:24:41 69° ENE 22:29:07 10° N
Cosmos 1603 3.8 22:19:14 10° NNW 22:24:53 59° ENE 22:30:31 10° SE
CZ-2C R/B 3.9 22:22:31 10° SE 22:27:02 30° ENE 22:31:45 10° N
Cosmos 2279 Rocket 4.3 22:23:57 10° N 22:29:57 45° ENE 22:35:54 10° SSE
Meteor 2-5 Rocket 3.7 22:25:08 10° S 22:30:41 68° E 22:36:11 10° NNE
Cosmos 1503 Rocket 4.2 22:26:47 10° SSW 22:32:09 86° WNW 22:37:34 10° NNE
Cosmos 1953 4.5 22:30:27 10° NNW 22:33:58 31° W 22:37:28 10° SSW
Cosmos 1939 Rocket 3.1 22:31:12 10° SSE 22:35:10 47° ENE 22:39:08 10° N
H-2A R/B 3.0 22:37:08 10° ESE 22:40:56 23° ENE 22:44:48 10° NNE
Lacrosse 5 3.2 22:37:26 10° NNW 22:41:21 22° NNE 22:44:36 13° ENE
Cosmos 1634 Rocket 4.0 22:35:06 10° N 22:41:22 88° E 22:47:40 10° S
ATLAS 5 CENTAUR R/B 1.6 22:38:31 10° SW 22:42:26 69° NW 22:46:52 10° NNE
CZ-4 R/B 2.5 22:40:32 10° ESE 22:43:51 24° ENE 22:47:09 10° NNE
Meteor 2-10 Rocket 4.2 22:39:29 10° N 22:44:30 34° ENE 22:49:18 10° SE
Cosmos 1455 3.9 22:43:02 10° NE 22:49:49 - SE 22:44:33 13° ENE
H-2A R/B 3.7 22:41:17 10° S 22:45:03 44° W 22:49:00 10° NNW
CZ-4B R/B 1.4 22:43:26 10° NNE 22:46:47 56° E 22:50:03 10° S
Cosmos 1300 2.6 22:44:34 10° N 22:48:23 77° E 22:52:12 10° SSE
COSMOS 2455 3.3 22:43:22 10° S 22:49:00 43° ESE 22:54:36 10° NE
Abrixas rocket 3.3 22:46:47 10° WNW 22:49:15 34° SW 22:51:42 10° SE
YAOGAN 1 3.5 22:48:11 10° SE 22:51:46 26° ENE 22:55:22 10° NNE
Cosmos 1892 Rocket 3.8 22:47:58 10° SSE 22:52:06 45° E 22:56:15 10° NNE
CSL-04 DEB 4.4 22:48:46 10° NNE 22:53:01 89° ESE 22:57:07 10° SSW
Cosmos 1606 Rocket 3.5 22:48:44 10° N 22:53:06 69° E 22:57:29 10° SSE
Cosmos 1315 Rocket 2.7 22:49:42 10° N 22:53:42 88° E 22:57:41 10° S
H-2A R/B 3.1 22:50:44 10° N 22:55:02 48° WNW 22:59:14 10° SW
Cosmos 2263 Rocket 2.8 22:53:03 10° SW 22:58:40 60° WNW 23:04:18 10° NNE
Cosmos 773 Rocket 3.9 22:55:40 10° NNW 23:00:50 70° ENE 23:05:56 10° SSE
SKYMED 2 3.5 23:02:47 10° NNE 23:07:10 84° ESE 23:11:30 10° SSW
CZ-4C R/B 3.9 23:06:31 10° W 23:10:44 24° NNW 23:15:37 10° NNE
Feng Yun 1-1 Rocket 4.2 23:05:25 10° SSE 23:10:49 90° WSW 23:16:21 10° NNW
USA 267 4.0 23:07:34 19° ENE 23:11:29 34° SE 23:17:16 10° S
Meteor 1-24 Rocket 3.9 23:06:47 10° SSW 23:12:09 68° WNW 23:17:27 10° N
ERS-2 2.1 23:08:47 11° NNE 23:12:11 59° ESE 23:15:46 10° S
Cosmos 2228 3.5 23:08:30 10° NNW 23:12:43 63° W 23:16:56 10° S
SJ 16-02 2.1 23:10:32 10° SSE 23:14:26 32° E 23:15:45 27° ENE
ARGOS 3.6 23:13:36 10° SE 23:18:26 36° ENE 23:23:16 10° N
ATLAS 2AS CENTAUR R/B 4.3 23:12:24 10° W 23:19:22 32° NW 23:26:15 10° NNE
Cosmos 1943 3.9 23:13:58 10° NNW 23:19:32 58° WSW 23:25:02 10° S
Cosmos 2058 Rocket 3.0 23:16:05 10° N 23:20:34 66° E 23:25:03 10° SSE
Helios 1A Rocket 3.3 23:17:38 10° SE 23:21:31 42° ENE 23:25:27 10° N
Cosmos 1844 4.1 23:20:54 10° S 23:26:06 40° ESE 23:28:26 28° ENE
Okean 1-7 Rocket 3.5 23:21:57 10° S 23:26:26 71° E 23:30:59 10° NNE
Nadezhda 4 Rocket 3.9 23:21:10 10° S 23:27:21 65° E 23:33:30 10° NNE
Cosmos 1689 Rocket 1.8 23:27:53 68° E 23:27:55 68° E 23:30:44 10° S
Cosmos 1538 Rocket 3.8 23:23:33 10° NNW 23:28:44 71° ENE 23:33:52 10° SSE
CZ-2C R/B 3.4 23:28:32 29° ENE 23:29:30 31° E 23:34:25 10° SSE
Cosmos 1777 Rocket 4.3 23:28:17 10° SSW 23:33:30 67° WNW 23:38:47 10° NNE
Iridium 4 Rocket 4.2 23:28:19 10° NNE 23:33:32 35° E 23:38:24 10° SE
Meteor 1-21 Rocket 4.2 23:31:26 10° S 23:36:48 56° E 23:41:30 14° NNE
CZ-2D R/B 4.3 23:33:24 10° S 23:37:08 46° W 23:40:52 10° NNW
Aureole 2 Rocket 2.3 23:36:31 10° SSW 23:38:57 57° S 23:38:57 57° S
CZ-3B R/B 2.8 23:41:47 10° NNW 23:44:28 38° NE 23:44:28 38° NE
MOS 1 Rocket 3.9 23:41:40 10° N 23:45:52 50° WNW 23:50:00 10° SSW
USA 234 4.0 23:44:02 29° NE 23:45:53 34° NNE 23:51:38 10° NW
Cosmos 1626 Rocket 3.5 23:41:59 10° S 23:46:15 59° E 23:46:37 57° ENE
Cosmos 1844 Rocket 2.6 23:48:07 10° SSW 23:53:47 84° ESE 23:56:32 32° NNE
Okean-O 3.0 23:50:27 10° S 23:54:50 64° W 23:59:15 10° NNW
COSMO-SKYMED 1 4.4 23:51:18 10° N 23:55:05 30° WNW 23:58:51 10° SW
ISS -2.8 23:52:28 10° SW 23:54:54 44° SSW 23:54:54 44° SSW
